sat.trackr.live / text

‹ back to catalog

STARLINK-5365

NORAD 55498 · 2023-015BB

PAYLOAD ACTIVE UNKNOWN

§ Identity

Operator
Country
US
Launch date
2023-02-02
Launch site
AFETR
Launch vehicle
Mass (kg)
RCS (m²)

Purposes: comms

External: N2YO · Heavens-Above · Gunter

§ Orbital elements

Epoch: 2026-09-20T14:49:19.525440Z

Period
94.27 min
Inclination
43.0052°
Eccentricity
0.0002007
Mean motion
15.27576674 rev/d
Perigee alt
481.7 km
Apogee alt
484.4 km
Semi-major
6,861.2 km
B*
2.0927e-5
RAAN
319.1574°
Arg perigee
285.1761°
Mean anomaly
74.8869°
Rev number
20,040

§ Raw data

STARLINK-53651 55498U 23015BB  26263.61758710  .00000313  00000+0  20927-4 0  99962 55498  43.0052 319.1574 0002007 285.1761  74.8869 15.27576674200404

JSON: /api/v1/satellites/55498 · /tle

For live sub-satellite position, see the globe view (requires WebGL).

§ Visibility from observer

Set your observer location to see the next 7 days of passes ≥ 10°. The values pass through the URL so the page stays shareable.

No JS? Fill the form by hand. The geolocation button needs JavaScript.